,,,PA_Meas_PMT16A,,PR_Meas_QMR101_102,,RH_Meas_QMH101,,SR_Meas_QMS101,,TA_Meas_QMH101,,GenWind,,GenWind,
date,time,status,PA,status,PR,status,RH,status,SR,status,TA,status,DirAvg,status,SpdAvg,
2011-01-23, 00:00:04,VALID,999.976,VALID,0,VALID,88.2747,VALID,0,VALID,24.2866,VALID,91,VALID,0.263672,
2011-01-23, 00:01:04,VALID,999.954,VALID,0,VALID,88.2518,VALID,0,VALID,24.2671,VALID,102,VALID,0.479688,
2011-01-23, 00:02:04,VALID,999.931,VALID,0,VALID,88.1526,VALID,0,VALID,24.2476,VALID,89,VALID,0.955078,
2011-01-23, 00:03:04,VALID,999.925,VALID,0,VALID,88.145,VALID,0,VALID,24.2653,VALID,91,VALID,0.667188,
2011-01-23, 00:04:04,VALID,999.93,VALID,0,VALID,88.2594,VALID,0,VALID,24.2476,VALID,54,VALID,0.551562,
2011-01-23, 00:05:04,VALID,999.98,VALID,0,VALID,88.3663,VALID,0,VALID,24.2671,VALID,37,VALID,0.332422,
2011-01-23, 00:06:04,VALID,1000.01,VALID,0,VALID,88.4807,VALID,0,VALID,24.2281,VALID,37,VALID,0.219141,
2011-01-23, 00:07:04,VALID,1000.01,VALID,0,VALID,88.618,VALID,0,VALID,24.2067,VALID,37,VALID,0.397656,
2011-01-23, 00:08:04,VALID,1000.04,VALID,0,VALID,88.7172,VALID,0,VALID,24.1677,VALID,37,VALID,0.434766,
2011-01-23, 00:09:04,VALID,1000.02,VALID,0,VALID,88.8469,VALID,0,VALID,24.1696,VALID,40,VALID,0.689844,
2011-01-23, 00:10:04,VALID,1000.01,VALID,0,VALID,88.9385,VALID,0,VALID,24.1696,VALID,65,VALID,0.380078,
2011-01-23, 00:11:04,VALID,999.977,VALID,0,VALID,88.9766,VALID,0,VALID,24.1482,VALID,65,VALID,0.532422,
2011-01-23, 00:12:04,VALID,999.979,VALID,0,VALID,89.0606,VALID,0,VALID,24.1696,VALID,61,VALID,0.71875,
2011-01-23, 00:13:04,VALID,999.945,VALID,0,VALID,88.969,VALID,0,VALID,24.2067,VALID,61,VALID,0.403516,
2011-01-23, 00:14:04,VALID,999.919,VALID,0,VALID,88.9003,VALID,0,VALID,24.2263,VALID,63,VALID,0.708203,
2011-01-23, 00:15:04,VALID,999.898,VALID,0,VALID,88.8088,VALID,0,VALID,24.2671,VALID,70,VALID,1.06211,
2011-01-23, 00:16:04,VALID,999.813,VALID,0,VALID,88.4426,VALID,0,VALID,24.2848,VALID,74,VALID,0.954297,
2011-01-23, 00:17:04,VALID,999.783,VALID,0,VALID,88.0992,VALID,0,VALID,24.3647,VALID,74,VALID,0.191406,
2011-01-23, 00:18:04,VALID,999.744,VALID,0,VALID,87.939,VALID,0,VALID,24.3629,VALID,87,VALID,0.771094,
2011-01-23, 00:19:04,VALID,999.774,VALID,0,VALID,88.0916,VALID,0,VALID,24.4019,VALID,85,VALID,0.663281,
2011-01-23, 00:20:04,VALID,999.789,VALID,0,VALID,88.1832,VALID,0,VALID,24.4428,VALID,84,VALID,0.511328,
2011-01-23, 00:21:04,VALID,999.847,VALID,0,VALID,88.2823,VALID,0,VALID,24.4214,VALID,84,VALID,0.315625,
2011-01-23, 00:22:04,VALID,999.879,VALID,0,VALID,88.4426,VALID,0,VALID,24.4019,VALID,81,VALID,0.390625,
2011-01-23, 00:23:04,VALID,999.858,VALID,0,VALID,88.5265,VALID,0,VALID,24.3842,VALID,80,VALID,0.316406,
2011-01-23, 00:24:04,VALID,999.852,VALID,0,VALID,88.5951,VALID,0,VALID,24.3452,VALID,80,VALID,0.152734,
2011-01-23, 00:25:04,VALID,999.885,VALID,0,VALID,88.6943,VALID,0,VALID,24.3062,VALID,80,VALID,0,
2011-01-23, 00:26:04,VALID,999.863,VALID,0,VALID,88.8622,VALID,0,VALID,24.2476,VALID,80,VALID,0,
2011-01-23, 00:27:04,VALID,999.87,VALID,0,VALID,89.114,VALID,0,VALID,24.2476,VALID,80,VALID,0,
2011-01-23, 00:28:04,VALID,999.862,VALID,0,VALID,89.2971,VALID,0,VALID,24.2067,VALID,80,VALID,0,
2011-01-23, 00:29:04,VALID,999.863,VALID,0,VALID,89.4115,VALID,0,VALID,24.2086,VALID,80,VALID,0,
2011-01-23, 00:30:04,VALID,999.845,VALID,0,VALID,89.6328,VALID,0,VALID,24.2281,VALID,80,VALID,0,
2011-01-23, 00:31:04,VALID,999.818,VALID,0,VALID,89.7243,VALID,0,VALID,24.2086,VALID,80,VALID,0,
2011-01-23, 00:32:04,VALID,999.807,VALID,0,VALID,89.7167,VALID,0,VALID,24.2086,VALID,80,VALID,0,
2011-01-23, 00:33:04,VALID,999.808,VALID,0,VALID,89.7472,VALID,0,VALID,24.1891,VALID,80,VALID,0,
2011-01-23, 00:34:04,VALID,999.791,VALID,0,VALID,89.6709,VALID,0,VALID,24.1482,VALID,80,VALID,0,
2011-01-23, 00:35:04,VALID,999.797,VALID,0,VALID,89.5946,VALID,0,VALID,24.1696,VALID,80,VALID,0.330469,
2011-01-23, 00:36:04,VALID,999.82,VALID,0,VALID,89.4573,VALID,0,VALID,24.1677,VALID,99,VALID,0.691406,
2011-01-23, 00:37:04,VALID,999.795,VALID,0,VALID,89.2589,VALID,0,VALID,24.1872,VALID,99,VALID,0.722656,
2011-01-23, 00:38:04,VALID,999.817,VALID,0,VALID,89.0758,VALID,0,VALID,24.2086,VALID,115,VALID,0.694922,
2011-01-23, 00:39:04,VALID,999.823,VALID,0,VALID,88.9309,VALID,0,VALID,24.2086,VALID,115,VALID,0.635547,
2011-01-23, 00:40:04,VALID,999.776,VALID,0,VALID,88.8851,VALID,0,VALID,24.2086,VALID,115,VALID,0.570703,
2011-01-23, 00:41:04,VALID,999.747,VALID,0,VALID,88.702,VALID,0,VALID,24.2263,VALID,129,VALID,0.566797,
2011-01-23, 00:42:04,VALID,999.701,VALID,0,VALID,88.496,VALID,0,VALID,24.2458,VALID,130,VALID,0.249609,
2011-01-23, 00:43:04,VALID,999.672,VALID,0,VALID,88.3586,VALID,0,VALID,24.2866,VALID,130,VALID,0.275781,
2011-01-23, 00:44:04,VALID,999.642,VALID,0,VALID,88.2442,VALID,0.112286,VALID,24.2671,VALID,130,VALID,0,
2011-01-23, 00:45:04,VALID,999.678,VALID,0,VALID,88.2518,VALID,0,VALID,24.2067,VALID,130,VALID,0.248828,
2011-01-23, 00:46:04,VALID,999.676,VALID,0,VALID,88.4044,VALID,0,VALID,24.1677,VALID,130,VALID,0,
2011-01-23, 00:47:04,VALID,999.655,VALID,0,VALID,88.6257,VALID,0,VALID,24.1677,VALID,29,VALID,0,
2011-01-23, 00:48:04,VALID,999.706,VALID,0,VALID,88.6943,VALID,0,VALID,24.1677,VALID,28,VALID,0.884375,
2011-01-23, 00:49:04,VALID,999.709,VALID,0,VALID,88.8469,VALID,0.112286,VALID,24.1482,VALID,28,VALID,0.706641,
2011-01-23, 00:50:04,VALID,999.672,VALID,0,VALID,88.9461,VALID,0,VALID,24.1482,VALID,28,VALID,0.585547,
2011-01-23, 00:51:04,VALID,999.687,VALID,0,VALID,89.1597,VALID,0,VALID,24.1287,VALID,28,VALID,0.402344,
2011-01-23, 00:52:04,VALID,999.66,VALID,0,VALID,89.2437,VALID,0,VALID,24.15,VALID,28,VALID,0,
2011-01-23, 00:53:04,VALID,999.603,VALID,0,VALID,89.3352,VALID,0,VALID,24.1092,VALID,28,VALID,0,
2011-01-23, 00:54:04,VALID,999.579,VALID,0,VALID,89.3886,VALID,0,VALID,24.0701,VALID,28,VALID,0,
2011-01-23, 00:55:04,VALID,999.512,VALID,0,VALID,89.4649,VALID,0,VALID,24.072,VALID,28,VALID,0,
2011-01-23, 00:56:04,VALID,999.513,VALID,0,VALID,89.587,VALID,0.112286,VALID,24.0506,VALID,28,VALID,0,
2011-01-23, 00:57:04,VALID,999.466,VALID,0,VALID,89.7243,VALID,0,VALID,24.0738,VALID,28,VALID,0,
2011-01-23, 00:58:04,VALID,999.495,VALID,0,VALID,89.8159,VALID,0,VALID,24.0543,VALID,28,VALID,0,
2011-01-23, 00:59:04,VALID,999.521,VALID,0,VALID,89.9227,VALID,0,VALID,24.0134,VALID,28,VALID,0,
2011-01-23, 01:00:04,VALID,999.515,VALID,0,VALID,89.999,VALID,0,VALID,23.9939,VALID,28,VALID,0,
2011-01-23, 01:01:04,VALID,999.546,VALID,0,VALID,90.0677,VALID,0,VALID,23.9744,VALID,28,VALID,0,
2011-01-23, 01:02:04,VALID,999.528,VALID,0,VALID,90.144,VALID,0,VALID,23.9549,VALID,28,VALID,0,
2011-01-23, 01:03:04,VALID,999.504,VALID,0,VALID,90.3194,VALID,0,VALID,23.9549,VALID,28,VALID,0,
2011-01-23, 01:04:04,VALID,999.481,VALID,0,VALID,90.4797,VALID,0,VALID,23.9549,VALID,28,VALID,0,
2011-01-23, 01:05:04,VALID,999.477,VALID,0,VALID,90.5865,VALID,0,VALID,23.9744,VALID,103,VALID,0.265625,
2011-01-23, 01:06:04,VALID,999.458,VALID,0,VALID,90.5331,VALID,0,VALID,23.9744,VALID,125,VALID,0.765234,
2011-01-23, 01:07:04,VALID,999.446,VALID,0,VALID,90.3728,VALID,0,VALID,23.9744,VALID,125,VALID,0.666016,
2011-01-23, 01:08:04,VALID,999.468,VALID,0,VALID,90.2203,VALID,0,VALID,23.9744,VALID,125,VALID,0.461328,
2011-01-23, 01:09:04,VALID,999.479,VALID,0,VALID,90.0524,VALID,0,VALID,23.9957,VALID,125,VALID,0.342578,
2011-01-23, 01:10:04,VALID,999.484,VALID,0,VALID,89.8006,VALID,0,VALID,23.9762,VALID,124,VALID,0.703906,
2011-01-23, 01:11:04,VALID,999.525,VALID,0,VALID,89.4649,VALID,0,VALID,23.9762,VALID,130,VALID,0.542188,
2011-01-23, 01:12:04,VALID,999.53,VALID,0,VALID,89.2208,VALID,0,VALID,23.9531,VALID,122,VALID,0.616797,
2011-01-23, 01:13:04,VALID,999.489,VALID,0,VALID,89.1292,VALID,0.112286,VALID,23.9531,VALID,119,VALID,0.411719,
2011-01-23, 01:14:04,VALID,999.495,VALID,0,VALID,89.1292,VALID,0,VALID,23.9531,VALID,87,VALID,0.766016,
2011-01-23, 01:15:04,VALID,999.452,VALID,0,VALID,89.2208,VALID,0,VALID,23.9531,VALID,88,VALID,0.358203,
2011-01-23, 01:16:04,VALID,999.437,VALID,0,VALID,89.3428,VALID,0.112286,VALID,23.9531,VALID,93,VALID,0.436719,
2011-01-23, 01:17:04,VALID,999.369,VALID,0,VALID,89.3581,VALID,0,VALID,23.9549,VALID,110,VALID,0.175,
2011-01-23, 01:18:04,VALID,999.338,VALID,0,VALID,89.3963,VALID,0.112286,VALID,23.914,VALID,110,VALID,0.00898437,
2011-01-23, 01:19:04,VALID,999.336,VALID,0,VALID,89.5183,VALID,0,VALID,23.914,VALID,107,VALID,0.181641,
2011-01-23, 01:20:04,VALID,999.34,VALID,0,VALID,89.587,VALID,0,VALID,23.9159,VALID,107,VALID,0,
2011-01-23, 01:21:04,VALID,999.344,VALID,0,VALID,89.6862,VALID,0.112286,VALID,23.875,VALID,107,VALID,0.1625,
2011-01-23, 01:22:04,VALID,999.368,VALID,0,VALID,89.7625,VALID,0,VALID,23.875,VALID,107,VALID,0,
2011-01-23, 01:23:04,VALID,999.377,VALID,0,VALID,89.8159,VALID,0,VALID,23.875,VALID,107,VALID,0,
2011-01-23, 01:24:04,VALID,999.333,VALID,0,VALID,89.8693,VALID,0,VALID,23.875,VALID,107,VALID,0,
2011-01-23, 01:25:04,VALID,999.303,VALID,0,VALID,89.938,VALID,0,VALID,23.875,VALID,107,VALID,0,
2011-01-23, 01:26:04,VALID,999.296,VALID,0,VALID,89.9914,VALID,0.112286,VALID,23.875,VALID,107,VALID,0,
2011-01-23, 01:27:04,VALID,999.294,VALID,0,VALID,90.0143,VALID,0.112286,VALID,23.875,VALID,107,VALID,0,
2011-01-23, 01:28:04,VALID,999.281,VALID,0,VALID,90.0066,VALID,0,VALID,23.875,VALID,107,VALID,0,
2011-01-23, 01:29:04,VALID,999.256,VALID,0,VALID,90.0066,VALID,0,VALID,23.875,VALID,101,VALID,0.363281,
2011-01-23, 01:30:04,VALID,999.216,VALID,0,VALID,89.938,VALID,0,VALID,23.8945,VALID,42,VALID,0.725391,
2011-01-23, 01:31:04,VALID,999.143,VALID,0,VALID,89.8235,VALID,0,VALID,23.914,VALID,36,VALID,0.442969,
2011-01-23, 01:32:04,VALID,999.108,VALID,0,VALID,89.7091,VALID,0.112286,VALID,23.9336,VALID,36,VALID,0.315234,
2011-01-23, 01:33:04,VALID,999.084,VALID,0,VALID,89.5717,VALID,0.112286,VALID,23.9744,VALID,36,VALID,0.028125,
2011-01-23, 01:34:04,VALID,999.076,VALID,0,VALID,89.4039,VALID,0.112286,VALID,23.9726,VALID,108,VALID,0.801562,
2011-01-23, 01:35:04,VALID,999.079,VALID,0,VALID,89.2055,VALID,0.112286,VALID,23.9921,VALID,115,VALID,0.66875,
2011-01-23, 01:36:04,VALID,999.115,VALID,0,VALID,89.03,VALID,0.112286,VALID,24.0311,VALID,115,VALID,0.717969,
2011-01-23, 01:37:04,VALID,999.118,VALID,0,VALID,88.9461,VALID,0.112286,VALID,24.0311,VALID,101,VALID,0.600391,
2011-01-23, 01:38:04,VALID,999.131,VALID,0,VALID,88.9614,VALID,0.112286,VALID,24.0506,VALID,100,VALID,0.797266,
2011-01-23, 01:39:04,VALID,999.14,VALID,0,VALID,88.9156,VALID,0,VALID,24.0701,VALID,57,VALID,0.771875,
2011-01-23, 01:40:04,VALID,999.157,VALID,0,VALID,88.908,VALID,0.112286,VALID,24.0897,VALID,57,VALID,0.568359,
2011-01-23, 01:41:04,VALID,999.157,VALID,0,VALID,88.8851,VALID,0,VALID,24.0915,VALID,57,VALID,0.355078,
2011-01-23, 01:42:04,VALID,999.143,VALID,0,VALID,89.0224,VALID,0,VALID,24.072,VALID,12,VALID,0.566797,
2011-01-23, 01:43:04,VALID,999.165,VALID,0,VALID,89.2284,VALID,0,VALID,24.0506,VALID,12,VALID,0.558203,
2011-01-23, 01:44:04,VALID,999.132,VALID,0,VALID,89.5641,VALID,0,VALID,24.0329,VALID,12,VALID,0.555859,
2011-01-23, 01:45:04,VALID,999.144,VALID,0,VALID,89.8693,VALID,0,VALID,24.0329,VALID,12,VALID,0.496484,
2011-01-23, 01:46:04,VALID,999.172,VALID,0,VALID,90.1058,VALID,0,VALID,24.0134,VALID,12,VALID,0.217969,
2011-01-23, 01:47:04,VALID,999.207,VALID,0,VALID,90.2508,VALID,0,VALID,24.0134,VALID,12,VALID,0.140625,
2011-01-23, 01:48:04,VALID,999.236,VALID,0,VALID,90.3652,VALID,0,VALID,24.0134,VALID,12,VALID,0.385156,
2011-01-23, 01:49:04,VALID,999.272,VALID,0,VALID,90.4415,VALID,0,VALID,24.0134,VALID,12,VALID,0.366016,
2011-01-23, 01:50:04,VALID,999.266,VALID,0,VALID,90.4644,VALID,0,VALID,23.9939,VALID,36,VALID,0.866016,
2011-01-23, 01:51:04,VALID,999.253,VALID,0,VALID,90.556,VALID,0,VALID,23.9744,VALID,46,VALID,1.37227,
2011-01-23, 01:52:04,VALID,999.274,VALID,0,VALID,90.7314,VALID,0,VALID,23.9744,VALID,50,VALID,1.16172,
2011-01-23, 01:53:04,VALID,999.293,VALID,0,VALID,90.8688,VALID,0,VALID,23.9531,VALID,50,VALID,1.28008,
2011-01-23, 01:54:04,VALID,999.291,VALID,0,VALID,90.9985,VALID,0,VALID,23.9744,VALID,54,VALID,1.31094,
2011-01-23, 01:55:04,VALID,999.3,VALID,0,VALID,91.09,VALID,0,VALID,23.9939,VALID,50,VALID,1.23984,
2011-01-23, 01:56:04,VALID,999.315,VALID,0,VALID,91.2045,VALID,0,VALID,24.0134,VALID,58,VALID,1.1707,
2011-01-23, 01:57:04,VALID,999.274,VALID,0,VALID,91.2808,VALID,0,VALID,23.9921,VALID,64,VALID,1.00508,
2011-01-23, 01:58:04,VALID,999.233,VALID,0,VALID,91.3266,VALID,0,VALID,23.9921,VALID,70,VALID,1.1293,
2011-01-23, 01:59:04,VALID,999.186,VALID,0,VALID,91.3189,VALID,0,VALID,24.0116,VALID,67,VALID,0.954297,
2011-01-23, 02:00:04,VALID,999.144,VALID,0,VALID,91.3571,VALID,0,VALID,24.0134,VALID,68,VALID,0.669531,
2011-01-23, 02:01:04,VALID,999.13,VALID,0,VALID,91.3189,VALID,0,VALID,24.0134,VALID,68,VALID,0.71875,
2011-01-23, 02:02:04,VALID,999.096,VALID,0,VALID,91.2808,VALID,0,VALID,24.0116,VALID,68,VALID,0.803906,
2011-01-23, 02:03:04,VALID,999.041,VALID,0,VALID,91.2274,VALID,0,VALID,24.0134,VALID,54,VALID,0.706641,
2011-01-23, 02:04:04,VALID,998.968,VALID,0,VALID,91.2121,VALID,0,VALID,24.0329,VALID,41,VALID,0.676172,
2011-01-23, 02:05:04,VALID,999.002,VALID,0,VALID,91.1892,VALID,0,VALID,24.0134,VALID,22,VALID,0.789844,
2011-01-23, 02:06:04,VALID,998.921,VALID,0,VALID,91.174,VALID,0,VALID,23.9939,VALID,13,VALID,0.966406,
2011-01-23, 02:07:04,VALID,998.908,VALID,0,VALID,91.1968,VALID,0,VALID,23.9744,VALID,13,VALID,0.695313,
2011-01-23, 02:08:04,VALID,998.891,VALID,0,VALID,91.2426,VALID,0,VALID,23.9744,VALID,13,VALID,0.544531,
2011-01-23, 02:09:04,VALID,998.937,VALID,0,VALID,91.2579,VALID,0,VALID,23.9744,VALID,13,VALID,0.610937,
2011-01-23, 02:10:04,VALID,998.933,VALID,0,VALID,91.3113,VALID,0,VALID,23.9939,VALID,13,VALID,0.679297,
2011-01-23, 02:11:04,VALID,998.921,VALID,0,VALID,91.3418,VALID,0,VALID,23.9726,VALID,13,VALID,0.699609,
2011-01-23, 02:12:04,VALID,998.921,VALID,0,VALID,91.3342,VALID,0,VALID,23.9726,VALID,13,VALID,0.603516,
2011-01-23, 02:13:04,VALID,998.895,VALID,0,VALID,91.3342,VALID,0,VALID,23.9744,VALID,13,VALID,0.694531,
2011-01-23, 02:14:04,VALID,998.904,VALID,0,VALID,91.3342,VALID,0,VALID,23.9549,VALID,13,VALID,0.587109,
2011-01-23, 02:15:04,VALID,998.884,VALID,0,VALID,91.3494,VALID,0,VALID,23.9744,VALID,13,VALID,0.440625,
2011-01-23, 02:16:04,VALID,998.858,VALID,0,VALID,91.3571,VALID,0,VALID,23.9744,VALID,13,VALID,0.259375,
2011-01-23, 02:17:04,VALID,998.844,VALID,0,VALID,91.3494,VALID,0,VALID,23.9744,VALID,13,VALID,0.394141,
2011-01-23, 02:18:04,VALID,998.858,VALID,0,VALID,91.3266,VALID,0,VALID,23.9549,VALID,13,VALID,0.165234,
2011-01-23, 02:19:04,VALID,998.858,VALID,0,VALID,91.3037,VALID,0,VALID,23.9549,VALID,13,VALID,0.308203,
2011-01-23, 02:20:04,VALID,998.875,VALID,0,VALID,91.2884,VALID,0,VALID,23.9549,VALID,13,VALID,0.421094,
2011-01-23, 02:21:04,VALID,998.875,VALID,0,VALID,91.2808,VALID,0,VALID,23.9549,VALID,43,VALID,0.676953,
2011-01-23, 02:22:04,VALID,998.894,VALID,0,VALID,91.2808,VALID,0,VALID,23.9336,VALID,71,VALID,0.902344,
2011-01-23, 02:23:04,VALID,998.916,VALID,0,VALID,91.2655,VALID,0,VALID,23.9726,VALID,71,VALID,0.916797,
2011-01-23, 02:24:04,VALID,998.93,VALID,0,VALID,91.2274,VALID,0,VALID,23.9939,VALID,71,VALID,0.923047,
2011-01-23, 02:25:04,VALID,998.922,VALID,0,VALID,91.1892,VALID,0,VALID,23.9921,VALID,71,VALID,0.881641,
2011-01-23, 02:26:04,VALID,998.926,VALID,0,VALID,91.1587,VALID,0,VALID,24.0329,VALID,71,VALID,0.907812,
2011-01-23, 02:27:04,VALID,998.942,VALID,0,VALID,91.1358,VALID,0,VALID,23.9921,VALID,71,VALID,0.904688,
2011-01-23, 02:28:04,VALID,998.96,VALID,0,VALID,91.1816,VALID,0,VALID,24.0525,VALID,87,VALID,1.17773,
2011-01-23, 02:29:04,VALID,998.977,VALID,0,VALID,91.2426,VALID,0,VALID,24.0525,VALID,102,VALID,1.21836,
2011-01-23, 02:30:04,VALID,999.018,VALID,0,VALID,91.3189,VALID,0,VALID,24.0525,VALID,116,VALID,1.13984,
2011-01-23, 02:31:04,VALID,999.011,VALID,0,VALID,91.3647,VALID,0,VALID,24.0525,VALID,117,VALID,1.32031,
2011-01-23, 02:32:04,VALID,998.983,VALID,0,VALID,91.4334,VALID,0,VALID,24.0329,VALID,126,VALID,1.10625,
2011-01-23, 02:33:04,VALID,999.011,VALID,0,VALID,91.4791,VALID,0,VALID,24.0329,VALID,133,VALID,1.23086,
2011-01-23, 02:34:04,VALID,999.034,VALID,0,VALID,91.5707,VALID,0,VALID,24.0329,VALID,128,VALID,1.03477,
2011-01-23, 02:35:04,VALID,999.009,VALID,0,VALID,91.6088,VALID,0,VALID,24.0116,VALID,128,VALID,0.985547,
2011-01-23, 02:36:04,VALID,998.992,VALID,0,VALID,91.6546,VALID,0,VALID,24.0134,VALID,128,VALID,0.996875,
2011-01-23, 02:37:04,VALID,998.994,VALID,0,VALID,91.6546,VALID,0,VALID,23.9744,VALID,128,VALID,0.677734,
2011-01-23, 02:38:04,VALID,998.965,VALID,0,VALID,91.6851,VALID,0,VALID,23.9744,VALID,128,VALID,0.775391,
2011-01-23, 02:39:04,VALID,998.962,VALID,0,VALID,91.7233,VALID,0,VALID,23.9744,VALID,128,VALID,0.427734,
2011-01-23, 02:40:04,VALID,998.97,VALID,0,VALID,91.7614,VALID,0,VALID,23.9744,VALID,128,VALID,0.753906,
2011-01-23, 02:41:04,VALID,998.977,VALID,0,VALID,91.7767,VALID,0,VALID,23.9549,VALID,128,VALID,0.622656,
2011-01-23, 02:42:04,VALID,998.926,VALID,0,VALID,91.8148,VALID,0,VALID,23.9549,VALID,138,VALID,0.957812,
2011-01-23, 02:43:04,VALID,998.953,VALID,0,VALID,91.8225,VALID,0,VALID,23.9336,VALID,126,VALID,0.820313,
2011-01-23, 02:44:04,VALID,998.965,VALID,0,VALID,91.8225,VALID,0,VALID,23.9549,VALID,131,VALID,0.467578,
2011-01-23, 02:45:04,VALID,998.982,VALID,0,VALID,91.853,VALID,0,VALID,23.9549,VALID,131,VALID,0.609375,
2011-01-23, 02:46:04,VALID,998.985,VALID,0,VALID,91.8301,VALID,0,VALID,23.9549,VALID,131,VALID,0.553125,
2011-01-23, 02:47:04,VALID,998.978,VALID,0,VALID,91.8225,VALID,0,VALID,23.9549,VALID,131,VALID,0.705859,
2011-01-23, 02:48:04,VALID,998.974,VALID,0,VALID,91.792,VALID,0,VALID,23.9336,VALID,131,VALID,0.479688,
2011-01-23, 02:49:04,VALID,998.995,VALID,0,VALID,91.7538,VALID,0,VALID,23.9336,VALID,131,VALID,0.187891,
2011-01-23, 02:50:04,VALID,999.036,VALID,0,VALID,91.7004,VALID,0,VALID,23.9354,VALID,131,VALID,0.0773437,
2011-01-23, 02:51:04,VALID,999.006,VALID,0.5,VALID,91.6546,VALID,0,VALID,23.914,VALID,131,VALID,0.375391,
2011-01-23, 02:52:04,VALID,998.994,VALID,0,VALID,91.6088,VALID,0,VALID,23.8945,VALID,131,VALID,0,
2011-01-23, 02:53:04,VALID,999.027,VALID,0,VALID,91.5478,VALID,0,VALID,23.8945,VALID,131,VALID,0,
2011-01-23, 02:54:04,VALID,998.99,VALID,0,VALID,91.5097,VALID,0,VALID,23.8945,VALID,131,VALID,0,
2011-01-23, 02:55:04,VALID,998.964,VALID,0,VALID,91.4715,VALID,0,VALID,23.8945,VALID,131,VALID,0,
2011-01-23, 02:56:04,VALID,998.997,VALID,0,VALID,91.4639,VALID,0,VALID,23.9549,VALID,131,VALID,0.222266,
2011-01-23, 02:57:04,VALID,998.977,VALID,0,VALID,91.4715,VALID,0,VALID,23.9549,VALID,131,VALID,0.476953,
2011-01-23, 02:58:04,VALID,998.957,VALID,0,VALID,91.4944,VALID,0,VALID,23.9336,VALID,131,VALID,0.360547,
2011-01-23, 02:59:04,VALID,998.98,VALID,0,VALID,91.4944,VALID,0,VALID,23.9531,VALID,131,VALID,0.141797,
2011-01-23, 03:00:04,VALID,998.99,VALID,0,VALID,91.5249,VALID,0,VALID,23.9336,VALID,131,VALID,0,
2011-01-23, 03:01:04,VALID,998.998,VALID,0,VALID,91.5249,VALID,0,VALID,23.9744,VALID,131,VALID,0,
2011-01-23, 03:02:04,VALID,998.996,VALID,0,VALID,91.4944,VALID,0,VALID,23.9549,VALID,131,VALID,0.422656,
2011-01-23, 03:03:04,VALID,999.007,VALID,0,VALID,91.4639,VALID,0,VALID,23.8945,VALID,136,VALID,0.758594,
2011-01-23, 03:04:04,VALID,999.009,VALID,0,VALID,91.3418,VALID,0,VALID,23.8555,VALID,147,VALID,1.02734,
2011-01-23, 03:05:04,VALID,999.009,VALID,0,VALID,91.1892,VALID,0,VALID,23.8555,VALID,146,VALID,0.891406,
2011-01-23, 03:06:04,VALID,999.011,VALID,0,VALID,91.0137,VALID,0,VALID,23.8963,VALID,146,VALID,0.820703,
2011-01-23, 03:07:04,VALID,999.009,VALID,0,VALID,90.8688,VALID,0,VALID,23.875,VALID,146,VALID,0.761328,
2011-01-23, 03:08:04,VALID,999.012,VALID,0,VALID,90.7696,VALID,0,VALID,23.8945,VALID,146,VALID,0.622656,
2011-01-23, 03:09:04,VALID,998.975,VALID,0,VALID,90.6933,VALID,0,VALID,23.9159,VALID,146,VALID,0.7,
2011-01-23, 03:10:04,VALID,999.015,VALID,0,VALID,90.6246,VALID,0,VALID,23.8945,VALID,146,VALID,0.342187,
2011-01-23, 03:11:04,VALID,998.978,VALID,0,VALID,90.6094,VALID,0,VALID,23.8945,VALID,146,VALID,0.478516,
2011-01-23, 03:12:04,VALID,998.992,VALID,0,VALID,90.6323,VALID,0,VALID,23.875,VALID,146,VALID,0.414453,
2011-01-23, 03:13:04,VALID,999.007,VALID,0,VALID,90.678,VALID,0,VALID,23.8945,VALID,146,VALID,0.0597656,
2011-01-23, 03:14:04,VALID,999.008,VALID,0,VALID,90.7085,VALID,0,VALID,23.875,VALID,146,VALID,0.308203,
2011-01-23, 03:15:04,VALID,999.013,VALID,0,VALID,90.7696,VALID,0,VALID,23.836,VALID,125,VALID,0.733984,
2011-01-23, 03:16:04,VALID,998.964,VALID,0,VALID,90.823,VALID,0,VALID,23.8555,VALID,125,VALID,0.628125,
2011-01-23, 03:17:04,VALID,999.022,VALID,0,VALID,90.8688,VALID,0,VALID,23.8555,VALID,125,VALID,0.296484,
2011-01-23, 03:18:04,VALID,999.006,VALID,0,VALID,90.9374,VALID,0,VALID,23.8573,VALID,125,VALID,0.235156,
2011-01-23, 03:19:04,VALID,999.001,VALID,0,VALID,90.9756,VALID,0,VALID,23.8573,VALID,125,VALID,0.480078,
2011-01-23, 03:20:04,VALID,999.008,VALID,0,VALID,91.0137,VALID,0,VALID,23.8573,VALID,86,VALID,0.685156,
2011-01-23, 03:21:04,VALID,999.009,VALID,0,VALID,91.0671,VALID,0,VALID,23.8573,VALID,83,VALID,0.538672,
2011-01-23, 03:22:04,VALID,999.026,VALID,0,VALID,91.1053,VALID,0,VALID,23.8573,VALID,83,VALID,0.530469,
2011-01-23, 03:23:04,VALID,999.031,VALID,0,VALID,91.1434,VALID,0,VALID,23.8573,VALID,83,VALID,0.499219,
2011-01-23, 03:24:04,VALID,998.997,VALID,0,VALID,91.1663,VALID,0,VALID,23.8573,VALID,83,VALID,0.243359,
2011-01-23, 03:25:04,VALID,999.013,VALID,0,VALID,91.2197,VALID,0,VALID,23.836,VALID,83,VALID,0.375781,
2011-01-23, 03:26:04,VALID,999.005,VALID,0,VALID,91.2884,VALID,0,VALID,23.836,VALID,83,VALID,0.422266,
2011-01-23, 03:27:04,VALID,998.992,VALID,0,VALID,91.3342,VALID,0,VALID,23.8378,VALID,83,VALID,0.358203,
2011-01-23, 03:28:04,VALID,998.988,VALID,0,VALID,91.3952,VALID,0,VALID,23.8591,VALID,83,VALID,0.4125,
2011-01-23, 03:29:04,VALID,999.017,VALID,0,VALID,91.4639,VALID,0,VALID,23.8378,VALID,83,VALID,0.322656,
2011-01-23, 03:30:04,VALID,999.004,VALID,0,VALID,91.5097,VALID,0,VALID,23.8591,VALID,83,VALID,0.199219,
2011-01-23, 03:31:04,VALID,999.003,VALID,0,VALID,91.5478,VALID,0,VALID,23.8378,VALID,83,VALID,0.292188,
2011-01-23, 03:32:04,VALID,999.012,VALID,0,VALID,91.5707,VALID,0,VALID,23.8378,VALID,83,VALID,0.351953,
2011-01-23, 03:33:04,VALID,999.015,VALID,0,VALID,91.6088,VALID,0,VALID,23.8378,VALID,83,VALID,0.527344,
2011-01-23, 03:34:04,VALID,999.042,VALID,0,VALID,91.6241,VALID,0,VALID,23.8378,VALID,83,VALID,0.407422,
2011-01-23, 03:35:04,VALID,999.031,VALID,0,VALID,91.6317,VALID,0,VALID,23.8786,VALID,83,VALID,0.380078,
2011-01-23, 03:36:04,VALID,999.046,VALID,0,VALID,91.6317,VALID,0,VALID,23.8573,VALID,83,VALID,0.354297,
2011-01-23, 03:37:04,VALID,999.049,VALID,0,VALID,91.6317,VALID,0,VALID,23.8591,VALID,83,VALID,0.366016,
2011-01-23, 03:38:04,VALID,999.06,VALID,0,VALID,91.6394,VALID,0,VALID,23.8591,VALID,83,VALID,0.371875,
2011-01-23, 03:39:04,VALID,999.035,VALID,0,VALID,91.6394,VALID,0,VALID,23.8573,VALID,83,VALID,0.333984,
2011-01-23, 03:40:04,VALID,999.033,VALID,0,VALID,91.6394,VALID,0,VALID,23.8573,VALID,83,VALID,0.277344,
2011-01-23, 03:41:04,VALID,999.034,VALID,0,VALID,91.6546,VALID,0,VALID,23.8378,VALID,83,VALID,0.519922,
2011-01-23, 03:42:04,VALID,999.053,VALID,0,VALID,91.6851,VALID,0,VALID,23.8573,VALID,83,VALID,0.447656,
2011-01-23, 03:43:04,VALID,999.054,VALID,0,VALID,91.6928,VALID,0,VALID,23.836,VALID,83,VALID,0.391016,
2011-01-23, 03:44:04,VALID,999.069,VALID,0,VALID,91.6928,VALID,0,VALID,23.8165,VALID,83,VALID,0.309766,
2011-01-23, 03:45:04,VALID,999.089,VALID,0,VALID,91.7385,VALID,0,VALID,23.8165,VALID,83,VALID,0.366016,
2011-01-23, 03:46:04,VALID,999.085,VALID,0,VALID,91.7691,VALID,0,VALID,23.8165,VALID,54,VALID,0.616016,
2011-01-23, 03:47:04,VALID,999.109,VALID,0,VALID,91.7843,VALID,0.112286,VALID,23.8165,VALID,54,VALID,0.598828,